STARLINK-35917 (66503 NORAD) Tracking and Keplerian Element Data

This shows tracking and keplerian element data for the satellite.

Feedback or suggestion? Click here.




ElementValue
Catalog66503
NameSTARLINK-35917
Epoch Orbit667
Epoch Day353.94284755
Epoch Year2025
RAAN83.5767
Inclination43.0018
Eccentricity0.0001212
Argument of Perigee262.5414
Mean Anonmoly97.5305
Mean Motion15.40705456
Decay Rate0.00033108
L11 66503U 25263U 25353.94284755 .00033108 00000+0 79627-3 0 9998
L22 66503 43.0018 83.5767 0001212 262.5414 97.5305 15.40705456 6679



Live tracking and technical data element details for STARLINK-35917 (NORAD 66503). STARLINK-35917 can be tracked NOW for your location showing map with azimuth and elevation plus other details from your city location.







IsCatalogInMostPopularTable: catalog: 66503, numindb: 14
Update: records affected: 1



GetName: 66503 STARLINK-35917

Hit Count: updated at: Thu, 21 May 2026 11:09:21 GMT